Probability
0 0 0 0 0 0 0 0 0 0 0 0 0 0 0 0 0 0 0 0 0 0 0 0 0 0 0 0 0 0 0 0 0 0 0 0 0 0 0 0 0 0 0
0 0 0 0 0 0 0 0 0 0 0 0 0 0 0 0 0 0 0 0 0 0 0 0 0 0 0 0 0 0 0 0 0 0 0 0 0 0 0 0 0 0 0
0 0 0 0 0 0 0 0 0 0 0 0 0 0 0 0 0 0 0 0 0 0 0 0 0 0 0 0 0 0 0 0 0 0 0 0 0 0 0 0 0 0 0
0 0 0 0 0 0 0 0 0 0 0 0 0 0 0 0 0 0 0 0 0 0 0 0 0 0 0 0 0 0 0 0 0 0 0 0 0 0 0 0 0 0 0
0 0 0 0 0 0 0 0 0 0 0 0 0 0 0 0 0 0 0 0 0 0 0 0 0 0 0 0 0 0 0 0 0 0 0 0 0 0 0 0 0 0 0
0 0 0 0 0 0 0 0 0 0 0 0 0 0 0 0 0 0 0 0 0 0 0 0 0 0 0 0 0 0 0 0 0 0 0 0 0 0 0 0 0 0 0
0 0 0 0 0 0 0 0 0 0 0 0 0 0 0 0 0 0 0 0 0 0 0 0 0 0 0 0 0 0 0 0 0 0 0 0 0 0 0 0 0 0 0
0 0 0 0 0 0 0 0 0 0 0 0 0 0 0 0 0 0 0 0 0 0 0 0 0 0 0 0 0 0 0 0 0 0 0 0 0 0 0 0 0 0 0
0 0 0 0 0 0 0 0 0 0 0 0 0 0 0 0 0 0 0 0 0 0 0 0 0 0 0 0 0 0 0 0 0 0 0 0 0 0 0 0 0 0 0
0 0 0 0 0 0 0 0 0 0 0 0 0 0 0 0 0 0 0 0 0 0 0 0 0 0 0 0 0 0 0 0 0 0 0 0 0 0 0 0 0 0 0
0 0 0 0 0 0 0 0 0 0 0 0 0 0 0 0 0 0 0 0 0 0 0 0 0 0 0 0 0 0 0 0 0 0 0 0 0 0 0 0 0 0 0
0 0 0 0 0 0 0 0 0 0 0 0 0 0 0 0 0 0 0 0 0 0 0 0 0 0 0 0 0 0 0 0 0 0 0 0 0 0 0 0 0 0 0
0 0 0 0 0 0 0 0 0 0 0 0 0 0 0 0 0 0 0 0 0 0 0 0 0 0 0 0 0 0 0 0 0 0 0 0 0 0 0 0 0 0 0
0 0 0 0 0 0 0 0 0 0 0 0 0 0 0 0 0 0 0 0 0 0 0 0 0 0 0 0 0 0 0 0 0 0 0 0 0 0 0 0 0 0 0
0 0 0 0 0 0 0 0 0 0 0 0 0 0 0 0 0 0 0 0 0 0 0 0 0 0 0 0 0 0 0 0 0 0 0 0 0 0 0 0 0 0 0
0 0 0 0 0 0 0 0 0 0 0 0 0 0 0 0 0 0 0 0 0 0 0 0 0 0 0 0 0 0 0 0 0 0 0 0 0 0 0 0 0 0 0
0 0 0 0 0 0 0 0 0 0 0 0 0 0 0 0 0 0 0 0 0 0 0 0 0 0 0 0 0 0 0 0 0 0 0 0 0 0 0 0 0 0 0
0 0 0 0 0 0 0 0 0 0 0 0 0 0 0 0 0 0 0 0 0 0 0 0 0 0 0 0 0 0 0 0 0 0 0 0 0 0 0 0 0 0 0
0 0 0 0 0 0 0 0 0 0 0 0 0 0 0 0 0 0 0 0 0 0 0 0 0 0 0 0 0 0 0 0 0 0 0 0 0 0 0 0 0 0 0
0 0 0 0 0 0 0 0 0 0 0 0 0 0 0 0 0 0 0 0 0 0 0 0 0 0 0 0 0 0 0 0 0 0 0 0 0 0 0 0 0 0 0
0 0 0 0 0 0 0 0 0 0 0 0 0 0 0 0 0 0 0 0 0 0 0 0 0 0 0 0 0 0 0 0 0 0 0 0 0 0 0 0 0 0 0
0 0 0 0 0 0 0 0 0 0 0 0 0 0 0 0 0 0 0 0 0 0 0 0 0 0 0 0 0 0 0 0 0 0 0 0 0 0 0 0 0 0 0
0 0 0 0 0 0 0 0 0 0 0 0 0 0 0 0 0 0 0 0 0 0 0 0 0 0 0 0 0 0 0 0 0 0 0 0 0 0 0 0 0 0 0
0 0 0 0 0 0 0 0 0 0 0 0 0 0 0 0 0 0 0 0 0 0 0 0 0 0 0 0 0 0 0 0 0 0 0 0 0 0 0 0 0 0 0
0 0 0 0 0 0 0 0 0 0 0 0 0 0 0 0 0 0 0 0 0 0 0 0 0 0 0 0 0 0 0 0 0 0 0 0 0 0 0 0 0 0 0
0 0 0 0 0 0 0 0 0 0 0 0 0 0 0 0 0 0 0 0 0 0 0 0 0 0 0 0 0 0 0 0 0 0 0 0 0 0 0 0 0 0 0
Wind_Speed
5 5 6 4 4 3 3 4 4 2 1 2 2 2 3 4 5 5 6 7 7 6 6 6 6 6 5 5 5 6 6 7 11 9 7 8 9 10 10 9 10 10 10
5 5 4 3 2 1 3 3 2 1 1 3 3 4 5 5 5 5 6 6 6 6 6 6 7 7 7 6 5 6 7 7 9 12 9 9 10 10 10 10 11 11 8
6 5 3 3 2 2 3 2 1 1 2 3 4 5 5 5 5 6 7 8 8 8 8 8 8 8 8 6 6 7 6 8 7 10 11 9 9 10 10 11 11 8 9
5 5 4 3 3 2 2 2 2 2 3 3 4 5 6 8 11 11 10 9 9 9 9 9 9 8 7 7 7 7 7 7 8 8 9 9 9 9 8 7 7 6 6
6 5 4 2 1 1 2 3 4 5 6 6 6 7 7 7 8 9 9 10 10 10 10 9 10 13 14 10 9 8 8 7 7 8 9 9 9 8 8 7 8 7 7
6 4 2 1 2 4 3 4 5 6 6 6 7 7 7 6 6 9 9 9 10 11 10 9 10 12 13 14 17 18 15 11 9 9 9 10 11 10 8 8 7 8 6
3 2 1 2 4 4 5 6 6 5 6 6 5 5 5 3 2 5 9 10 11 9 9 9 10 12 13 10 12 16 14 16 17 13 12 13 12 10 9 10 9 9 9
0 1 3 3 4 4 5 6 5 5 5 5 4 5 4 1 2 5 10 10 10 9 9 10 11 11 12 12 12 12 11 11 12 10 9 9 9 8 9 10 11 10 8
3 4 4 5 5 6 7 7 6 5 4 5 5 5 5 2 3 5 8 10 8 9 10 11 12 12 14 15 13 12 11 10 11 10 8 9 12 13 11 7 7 6 4
5 5 5 5 5 6 6 6 5 4 4 5 5 5 5 4 3 5 9 9 9 10 10 10 12 12 14 14 11 9 10 8 6 6 6 7 7 7 8 5 4 3 2
5 5 5 4 4 7 5 3 4 4 4 4 5 5 5 6 6 8 11 9 9 10 9 8 8 14 15 14 11 7 8 7 5 5 4 4 4 3 4 4 5 4 3
4 5 5 5 6 6 4 3 3 4 4 5 6 7 6 6 8 11 14 14 12 10 9 8 9 15 15 12 8 7 7 5 2 2 3 3 3 3 3 4 5 5 5
4 4 5 7 6 5 4 4 4 4 5 6 6 7 7 7 8 13 14 15 15 10 8 14 15 14 11 7 9 10 7 4 3 3 3 3 3 3 2 2 3 3 4
3 2 5 6 6 5 4 5 5 6 6 6 6 6 7 7 8 9 9 9 11 10 9 11 12 10 8 7 7 6 5 4 4 3 3 3 2 2 2 2 3 3 3
2 2 5 6 5 4 4 4 5 5 4 5 6 6 6 6 10 13 9 8 8 9 9 6 5 5 6 6 5 5 5 5 4 3 3 3 3 3 3 3 3 3 4
5 5 5 5 4 3 2 2 2 1 3 1 2 5 6 7 12 14 16 14 13 14 8 6 6 6 6 6 5 5 5 5 5 4 4 3 3 3 4 4 5 5 6
6 5 4 5 4 4 3 3 2 2 5 3 1 7 9 11 12 15 16 14 12 12 7 7 7 7 6 6 5 4 4 4 4 4 4 4 4 4 4 5 5 6 6
5 4 4 4 4 3 3 3 3 3 3 2 1 5 10 11 11 14 15 11 9 9 7 8 8 7 7 6 5 4 4 4 4 5 5 5 4 4 5 5 6 7 7
6 5 4 3 4 4 3 3 4 5 5 5 5 6 9 10 9 12 11 8 7 7 8 8 8 7 7 6 6 5 4 4 5 5 5 5 4 4 5 6 6 8 8
3 1 4 3 4 4 4 4 4 4 4 4 5 7 7 8 7 8 8 7 7 7 7 8 8 8 8 7 7 6 5 6 6 6 6 5 3 3 5 6 5 5 6
2 3 1 4 6 5 4 5 5 5 5 4 4 5 6 6 6 7 6 6 6 7 7 7 7 8 7 7 7 8 8 7 7 6 6 5 3 3 3 4 4 4 5
4 4 4 5 5 5 5 5 5 5 5 5 4 4 4 5 5 5 5 6 6 6 6 6 6 7 7 7 7 7 8 8 9 8 7 6 4 4 4 4 4 4 5
4 5 5 5 5 5 5 6 6 6 6 6 5 5 5 5 4 4 5 5 5 5 5 6 6 6 6 5 5 6 7 7 8 9 8 7 5 5 4 5 6 5 5
7 7 7 7 7 7 7 7 7 7 7 7 6 6 5 4 3 4 4 4 4 4 4 4 5 8 10 8 5 5 6 7 8 8 10 7 5 4 4 5 5 6 6
8 8 8 8 7 7 7 7 7 7 7 7 7 6 6 5 5 4 4 4 5 6 7 6 5 6 10 11 10 9 9 10 9 8 8 7 6 5 5 5 5 5 5
9 8 8 7 7 7 7 7 7 7 7 7 7 7 7 7 7 6 6 6 5 6 7 7 8 10 12 10 12 11 10 10 10 10 7 5 5 5 5 4 6 5 6
Wind_Direction
111 99 102 106 120 148 128 126 123 120 143 243 251 258 265 265 263 260 265 273 276 277 282 286 288 288 285 285 283 282 282 282 287 290 288 291 289 287 286 282 283 275 270
102 93 95 103 108 114 107 101 115 142 270 293 298 290 282 282 279 280 290 305 315 318 317 316 309 305 301 297 292 292 291 291 290 294 296 294 290 290 285 280 282 276 269
117 112 114 117 105 74 81 83 59 2 298 299 300 300 305 319 336 351 359 0 353 340 329 319 312 306 299 300 299 294 291 290 288 289 289 287 286 284 285 285 280 277 281
109 109 94 72 72 72 72 60 8 343 322 326 338 348 3 30 36 24 10 352 341 330 318 309 304 300 298 297 293 284 281 279 277 278 282 285 285 284 283 285 290 290 291
70 84 89 94 106 74 49 31 24 13 4 12 11 11 18 52 38 22 358 344 333 318 308 304 304 303 296 286 282 280 281 279 279 279 281 283 285 288 289 293 294 295 287
46 58 59 23 48 50 41 47 39 24 16 16 18 15 18 40 47 23 356 334 316 306 306 309 307 300 302 300 291 286 278 275 277 278 282 282 284 286 289 289 288 288 284
39 36 41 36 57 47 42 45 31 19 21 16 12 14 21 79 49 346 331 318 306 306 311 311 311 311 312 305 306 305 293 281 274 273 275 277 282 286 291 291 284 280 273
135 73 64 64 65 57 52 41 32 22 19 359 6 11 352 17 238 301 318 314 311 312 312 308 307 308 308 311 306 297 288 283 276 274 271 279 287 291 287 283 280 275 268
118 88 66 54 53 52 48 33 31 14 10 351 12 350 336 349 240 297 323 322 317 319 315 312 309 306 306 306 302 294 289 285 280 276 276 281 285 286 286 284 278 271 269
94 79 66 55 55 65 55 33 15 358 9 353 350 337 345 1 3 342 336 331 328 324 316 312 311 312 311 308 303 294 290 293 305 313 305 298 294 299 312 313 319 309 299
84 79 65 39 63 83 68 38 8 357 356 348 347 348 4 10 8 6 348 339 331 321 318 320 322 325 323 319 312 294 290 300 307 306 305 310 318 334 360 11 10 359 348
84 82 78 59 44 61 60 43 24 2 360 10 3 360 3 3 4 355 342 333 327 324 322 326 330 332 333 340 348 350 340 331 321 326 334 341 348 9 27 27 24 22 17
94 88 91 92 74 42 34 38 32 19 17 15 6 360 356 354 353 349 339 332 331 331 329 331 332 336 343 354 5 7 6 4 0 3 4 5 6 16 23 18 17 14 18
84 100 113 106 93 66 39 39 36 22 19 17 10 358 351 348 352 347 337 334 338 340 335 330 333 342 352 353 357 1 1 4 4 8 1 355 357 17 29 17 12 1 8
79 70 94 88 83 75 62 38 34 56 38 15 9 353 350 349 340 331 335 340 342 340 333 337 350 354 0 359 0 6 6 7 10 1 360 5 15 26 32 26 26 22 23
46 53 66 71 68 58 57 124 134 98 171 201 345 344 355 353 341 345 348 349 353 350 354 354 356 358 356 358 2 7 6 2 357 356 1 5 15 30 46 47 41 36 37
56 43 54 58 60 49 26 21 57 185 219 225 8 2 3 0 1 357 352 351 6 4 5 357 355 355 355 3 6 6 3 354 348 354 357 2 18 47 59 60 54 50 49
72 67 57 72 64 55 38 24 28 35 49 47 43 17 10 9 11 6 357 1 8 8 1 356 353 353 356 360 360 4 1 356 355 355 357 5 21 51 68 67 65 64 62
41 34 23 59 72 69 56 39 38 38 39 30 25 26 17 9 15 14 8 11 3 360 356 353 351 352 353 355 357 3 7 6 4 359 359 7 24 53 74 78 81 80 77
105 34 340 35 59 60 60 50 43 41 42 35 32 23 11 12 14 9 8 3 0 358 353 351 350 352 354 358 2 7 11 10 5 1 356 3 22 53 80 90 93 95 93
82 106 197 44 46 38 48 52 52 45 40 43 51 46 21 21 15 6 2 359 356 354 350 348 349 352 357 0 6 9 11 8 3 358 354 358 20 52 79 97 105 104 108
19 46 47 52 60 40 38 52 52 50 44 42 56 74 61 39 22 7 0 355 351 349 346 345 348 352 355 2 8 11 10 6 358 355 354 358 15 42 58 70 77 86 98
23 44 50 44 52 64 52 52 50 46 45 42 43 50 53 46 31 12 0 353 349 350 349 351 353 355 354 357 6 15 10 357 345 347 351 356 11 27 43 55 65 69 71
41 41 46 42 41 47 47 46 45 44 43 41 38 43 53 57 43 18 2 358 355 354 353 354 355 355 1 7 6 13 7 348 341 343 346 353 9 27 41 49 57 66 66
40 40 47 47 38 41 45 48 46 45 43 41 38 37 40 43 41 35 21 13 5 6 8 6 2 2 3 12 13 3 347 345 352 348 341 347 3 25 42 49 49 51 60
41 40 46 53 48 40 41 44 48 48 46 44 39 37 35 36 36 34 29 24 20 14 13 9 13 24 13 6 1 354 347 345 346 344 339 339 4 28 35 45 51 50 59